Regional Weather Roundup
Issued by NWS

Home | Current Version | Previous Version | Text Only | Print | Product List | Glossary Off
Versions: 1 2 3 4 5 6 7 8 9 10 11 12 13 14 15 16 17 18 19 20 21 22 23 24 25 26 27 28 29 30 31 32 33 34 35 36 37 38 39 40 41 42 43 44 45 46 47 48 49 50

000
ASUS44 KMEG 111710
RWRTN
TENNESSEE HOURLY STATE WEATHER ROUNDUP
NATIONAL WEATHER SERVICE MEMPHIS TN
1200 PM CDT FRI JUL 11 2014

TNZ002-004-019-021-049-052-054-088>092-111800-
WEST TENNESSEE

CITY           SKY/WX    TMP DP  RH WIND       PRES   REMARKS
MEMPHIS INTL   PTSUNNY   86  70  58 S6        30.18S HX  90
NWS MEMPHIS      N/A     87 N/A N/A MISG        N/A
JACKSON        SUNNY     86  65  49 CALM      30.18F
DYERSBURG      SUNNY     88  64  45 CALM      30.18F
UNION CITY     SUNNY     84  64  51 VRB3      30.18S
PARIS          MOSUNNY   85  65  51 E3        30.20S
LEXINGTON      SUNNY     86  66  51 SE3       30.18S
$$

TNZ008-025-027-028-033-062-065-066-111800-
NORTH MIDDLE TENNESSEE

CITY           SKY/WX    TMP DP  RH WIND       PRES   REMARKS
NASHVILLE      MOSUNNY   87  61  41 CALM      30.19S
DICKSON        SUNNY     86  63  45 S5        30.20S
PORTLAND       MOSUNNY   88  63  42 CALM      30.18F
CLARKSVILLE    MOSUNNY   87  63  44 S6        30.18S
SMYRNA         SUNNY     94  64  36 VRB5      30.18F HX  95
MURFREESBORO   SUNNY     88  60  38 E9        30.18F
COOKEVILLE     MOSUNNY   88  66  48 CALM      30.20F HX  90
LIVINGSTON     SUNNY     86  57  36 VRB3      30.22F
GALLATIN       SUNNY     89  63  41 CALM      30.19F HX  90
CROSSVILLE     SUNNY     81  56  42 VRB6      30.25F
$$

TNZ061-075-076-078-094-096-097-111800-
SOUTH MIDDLE TENNESSEE

CITY           SKY/WX    TMP DP  RH WIND       PRES   REMARKS
LEWISBURG      SUNNY     88  62  41 NE6       30.19S
TULLAHOMA      SUNNY     84  57  39 CALM      30.21F
WINCHESTER     SUNNY     88  61  40 CALM      30.19F
MCMINNVILLE    SUNNY     86  64  48 NE5       30.20F
COLUMBIA       MOSUNNY   90  63  40 E6        30.18S HX  90
$$

TNZ017-018-042-046-047-111800-
NORTHEAST TENNESSEE

CITY           SKY/WX    TMP DP  RH WIND       PRES   REMARKS
TRI CITIES     MOSUNNY   86  52  30 CALM      30.22F
ELIZABETHTON   SUNNY     82  61  47 CALM      30.22F
$$

TNZ012-013-036-069-073-074-111800-
CENTRAL EAST TENNESSEE

CITY           SKY/WX    TMP DP  RH WIND       PRES   REMARKS
KNOXVILLE      MOSUNNY   86  63  45 NE9       30.19F
OAK RIDGE      SUNNY     87  67  51 CALM      30.21F HX  90
$$

TNZ083-085-099-111800-
SOUTHEAST TENNESSEE

CITY           SKY/WX    TMP DP  RH WIND       PRES   REMARKS
CHATTANOOGA    MOSUNNY   87  68  52 N6        30.18F HX  90
$$

SKY/WX REPORTED AS FAIR MEANS FEW OR NO CLOUDS BELOW
12 THOUSAND FEET.



USA.gov is the U.S. government's official web portal to all federal, state and local government web resources and services.